#�ϑ�����,���ϕ���,���ϕ���,�ő啗��,�ő啗����������,�ő�u�ԕ���,�ő�u�ԕ�����������
#(�N����),(m/s)   ,(16����),(m/s)   ,(16����)        ,(m/s)       ,(16����)            
2018/7/4 0:01,4.4,7,4.6,7,9.2,8
2018/7/4 0:02,4.5,7,4.5,7,11,8
2018/7/4 0:03,4.6,7,4.6,7,11.9,7
2018/7/4 0:04,4.7,7,4.7,7,8.9,7
2018/7/4 0:05,4.7,7,4.8,7,10.3,6
2018/7/4 0:06,5.1,7,5.1,7,16.3,5
2018/7/4 0:07,5.2,7,5.2,7,8.2,7
2018/7/4 0:08,4.7,7,5.1,7,7.6,7
2018/7/4 0:09,4.9,7,4.9,7,10,7
2018/7/4 0:10,5,7,5,7,10.7,6
2018/7/4 0:11,5.2,7,5.2,7,10.6,8
2018/7/4 0:12,5.7,7,5.7,7,12.7,7
2018/7/4 0:13,5.8,7,5.9,7,14,8
2018/7/4 0:14,5.8,7,5.8,7,11.1,7
2018/7/4 0:15,5.8,7,5.8,7,9.5,6
2018/7/4 0:16,5.6,7,5.8,7,9.8,6
2018/7/4 0:17,6,7,6,7,13.4,7
2018/7/4 0:18,6.1,7,6.2,7,10.9,8
2018/7/4 0:19,6,7,6.1,7,8.4,7
2018/7/4 0:20,5.9,7,6,7,11.5,8
2018/7/4 0:21,5.7,7,5.9,7,6.4,7
2018/7/4 0:22,5.5,7,5.6,7,11.4,6
2018/7/4 0:23,5.2,7,5.5,7,7.5,6
2018/7/4 0:24,5.4,7,5.4,7,10.2,6
2018/7/4 0:25,5.5,7,5.5,7,8.1,8
2018/7/4 0:26,5.7,7,5.8,7,11.1,8
2018/7/4 0:27,5.5,7,5.8,7,10.2,7
2018/7/4 0:28,5.5,7,5.5,7,10,8
2018/7/4 0:29,5.6,7,5.6,7,11.4,9
2018/7/4 0:30,5.3,7,5.5,7,7,9
2018/7/4 0:31,5.5,7,5.5,7,8.7,5
2018/7/4 0:32,5.4,7,5.6,7,10.2,6
2018/7/4 0:33,5.3,7,5.4,7,6.9,6
2018/7/4 0:34,5,7,5.3,7,9.9,6
2018/7/4 0:35,5.1,7,5.1,7,14.4,6
2018/7/4 0:36,5,7,5.2,7,13.1,9
2018/7/4 0:37,4.8,7,5.1,7,10.3,7
2018/7/4 0:38,4.7,7,4.8,7,5.6,7
2018/7/4 0:39,4.5,7,4.6,7,7.1,8
2018/7/4 0:40,4.6,7,4.6,7,9.1,8
2018/7/4 0:41,4.7,7,4.8,7,11,8
2018/7/4 0:42,4.9,7,4.9,7,12.6,8
2018/7/4 0:43,4.7,8,4.8,7,5.6,8
2018/7/4 0:44,4.3,8,4.6,7,2.9,7
2018/7/4 0:45,3.9,7,4.3,7,2.2,5
2018/7/4 0:46,3.8,7,3.8,7,9,8
2018/7/4 0:47,3.6,7,3.7,7,5.7,7
2018/7/4 0:48,3.7,7,3.7,7,7,6
2018/7/4 0:49,3.8,7,3.8,7,6.8,7
2018/7/4 0:50,3.7,7,3.9,7,8.1,6
2018/7/4 0:51,3.6,7,3.7,7,9.1,7
2018/7/4 0:52,3.5,7,3.7,7,9.5,7
2018/7/4 0:53,3.9,7,3.9,8,11.8,4
2018/7/4 0:54,4.4,7,4.4,7,12.2,5
2018/7/4 0:55,4.6,7,4.6,7,6.2,7
2018/7/4 0:56,4.4,7,4.7,7,7.9,5
2018/7/4 0:57,4.5,7,4.5,7,5.7,9
2018/7/4 0:58,4.4,7,4.5,7,4.8,7
2018/7/4 0:59,4.4,7,4.5,7,8.5,8
2018/7/4 1:00,4.5,7,4.5,7,8.6,7
2018/7/4 1:01,4.5,7,4.5,7,8.4,5
2018/7/4 1:02,4.4,7,4.5,7,10.7,9
2018/7/4 1:03,4.4,7,4.5,7,10.7,7
2018/7/4 1:04,4.3,7,4.3,7,9.2,8
2018/7/4 1:05,4.4,7,4.4,7,8.5,7
2018/7/4 1:06,4.4,7,4.4,7,5.2,8
2018/7/4 1:07,4.7,7,4.7,8,12.6,8
2018/7/4 1:08,4.9,8,4.9,7,11,8
2018/7/4 1:09,4.9,7,5,7,7,7
2018/7/4 1:10,4.7,7,4.9,7,5.5,5
2018/7/4 1:11,4.5,7,4.7,7,5.8,8
2018/7/4 1:12,4.4,7,4.5,7,6.9,11
2018/7/4 1:13,4.2,7,4.4,7,12.4,8
2018/7/4 1:14,4,7,4.2,7,7.8,8
2018/7/4 1:15,3.8,7,4,7,5.1,5
2018/7/4 1:16,3.9,7,3.9,7,7,6
2018/7/4 1:17,3.5,7,3.9,7,6.8,8
2018/7/4 1:18,3.5,7,3.5,7,9.7,7
2018/7/4 1:19,3.8,7,3.8,7,11.4,7
2018/7/4 1:20,3.9,7,3.9,7,6.2,7
2018/7/4 1:21,4,8,4,7,6.7,9
2018/7/4 1:22,4.1,7,4.1,7,8.5,7
2018/7/4 1:23,4.3,7,4.3,7,9,7
2018/7/4 1:24,4.5,8,4.5,7,8.2,8
2018/7/4 1:25,4.8,8,4.8,8,7.5,8
2018/7/4 1:26,4.7,8,4.8,8,5.2,9
2018/7/4 1:27,4.6,8,4.6,8,4.3,7
2018/7/4 1:28,4.4,8,4.6,8,5.5,9
2018/7/4 1:29,4.1,8,4.4,8,8.1,8
2018/7/4 1:30,4.1,7,4.2,8,6.4,7
2018/7/4 1:31,4.2,7,4.2,8,6,8
2018/7/4 1:32,4.2,7,4.2,8,7.9,6
2018/7/4 1:33,4,7,4.2,8,7.1,7
2018/7/4 1:34,3.8,8,4,8,5.4,9
2018/7/4 1:35,3.5,7,3.8,8,5.6,8
2018/7/4 1:36,3.9,7,3.9,8,9.9,8
2018/7/4 1:37,4.2,7,4.2,8,8.2,7
2018/7/4 1:38,4.3,7,4.3,8,8.3,7
2018/7/4 1:39,4.6,7,4.6,7,10.3,7
2018/7/4 1:40,4.8,7,4.8,7,11,7
2018/7/4 1:41,5.1,7,5.1,7,10.6,7
2018/7/4 1:42,4.9,7,5,7,4.3,8
2018/7/4 1:43,4.7,7,4.9,7,4.8,6
2018/7/4 1:44,4.9,7,4.9,7,9.3,6
2018/7/4 1:45,5.1,7,5.1,7,6.5,7
2018/7/4 1:46,4.9,7,5.1,7,9.1,6
2018/7/4 1:47,5,7,5,7,9.1,8
2018/7/4 1:48,4.8,7,5.1,7,5.8,7
2018/7/4 1:49,4.4,7,4.8,7,4.7,7
2018/7/4 1:50,4,7,4.3,7,4.2,6
2018/7/4 1:51,3.5,7,4,7,7.1,5
2018/7/4 1:52,3.7,7,3.7,7,9.3,7
2018/7/4 1:53,3.9,7,3.9,7,7.4,8
2018/7/4 1:54,3.9,7,4,7,7.5,7
2018/7/4 1:55,3.8,7,3.9,7,5.6,9
2018/7/4 1:56,3.7,7,3.8,7,7.1,7
2018/7/4 1:57,3.5,7,3.7,7,6.1,6
2018/7/4 1:58,3.8,7,3.8,7,7.5,6
2018/7/4 1:59,3.8,6,3.8,7,6.7,5
2018/7/4 2:00,4,6,4,7,6.9,5
2018/7/4 2:01,4,6,4,7,4.3,9
2018/7/4 2:02,3.9,6,4,7,7,6
2018/7/4 2:03,3.9,6,4,7,6.5,6
2018/7/4 2:04,3.7,6,3.8,6,5.1,6
2018/7/4 2:05,3.8,6,3.8,6,8.6,6
2018/7/4 2:06,3.7,6,3.8,6,6.2,8
2018/7/4 2:07,3.7,6,3.7,6,5.4,6
2018/7/4 2:08,3.5,6,3.7,6,4.7,6
2018/7/4 2:09,3.5,6,3.5,6,5.2,6
2018/7/4 2:10,3.5,6,3.5,6,7.1,7
2018/7/4 2:11,3.7,6,3.7,6,7.2,8
2018/7/4 2:12,3.7,6,3.7,6,6.3,5
2018/7/4 2:13,3.7,6,3.7,6,7.1,6
2018/7/4 2:14,3.6,6,3.7,6,5.6,7
2018/7/4 2:15,3.6,6,3.6,6,6.2,6
2018/7/4 2:16,3.6,6,3.6,6,5.6,6
2018/7/4 2:17,3.6,6,3.7,6,5.6,7
2018/7/4 2:18,3.6,6,3.6,6,5.5,6
2018/7/4 2:19,3.9,6,3.9,6,7.5,5
2018/7/4 2:20,3.8,6,3.8,6,5.2,7
2018/7/4 2:21,3.8,6,3.8,6,8.1,6
2018/7/4 2:22,4,6,4,6,7.4,8
2018/7/4 2:23,4,6,4,6,7.1,6
2018/7/4 2:24,4.1,6,4.1,6,6.8,6
2018/7/4 2:25,4.2,6,4.2,6,6.2,6
2018/7/4 2:26,4.2,6,4.2,6,5.7,7
2018/7/4 2:27,4,6,4.2,6,4.5,7
2018/7/4 2:28,4,6,4,6,3.9,5
2018/7/4 2:29,3.9,6,4,6,7.1,4
2018/7/4 2:30,4,6,4,6,6.3,5
2018/7/4 2:31,3.9,6,4,6,6.3,7
2018/7/4 2:32,3.6,6,3.8,6,5.5,6
2018/7/4 2:33,3.3,6,3.6,6,4.3,5
2018/7/4 2:34,3.2,6,3.3,6,6.2,5
2018/7/4 2:35,3.4,6,3.4,6,8.9,5
2018/7/4 2:36,3.3,6,3.4,6,6.5,6
2018/7/4 2:37,3.4,6,3.4,6,4.8,6
2018/7/4 2:38,3.5,6,3.5,6,4.4,5
2018/7/4 2:39,3.5,6,3.6,6,6.5,6
2018/7/4 2:40,3.4,6,3.5,6,5,6
2018/7/4 2:41,3.4,5,3.4,6,6.7,5
2018/7/4 2:42,3.6,5,3.6,6,8.2,5
2018/7/4 2:43,3.7,6,3.7,5,5.6,7
2018/7/4 2:44,3.7,6,3.7,5,7.4,5
2018/7/4 2:45,3.5,6,3.7,5,6.2,3
2018/7/4 2:46,3.6,6,3.6,5,8.5,6
2018/7/4 2:47,3.7,6,3.7,5,8.1,7
2018/7/4 2:48,3.8,6,3.8,6,6.9,5
2018/7/4 2:49,3.9,6,3.9,6,6.7,5
2018/7/4 2:50,4.1,6,4.1,6,9.3,7
2018/7/4 2:51,4.3,6,4.3,6,8.1,5
2018/7/4 2:52,4.1,6,4.3,6,8.2,5
2018/7/4 2:53,4.3,6,4.3,6,6.5,6
2018/7/4 2:54,4.3,6,4.4,6,6.2,5
2018/7/4 2:55,4.3,6,4.4,6,6.8,5
2018/7/4 2:56,4.3,5,4.4,6,5.8,5
2018/7/4 2:57,4.3,5,4.3,6,6.4,5
2018/7/4 2:58,4.2,5,4.3,6,6.3,6
2018/7/4 2:59,4.2,5,4.2,6,7,6
2018/7/4 3:00,4.1,5,4.2,6,6.1,4
2018/7/4 3:01,3.8,5,4.1,6,4.1,4
2018/7/4 3:02,3.8,5,3.8,6,5.2,5
2018/7/4 3:03,3.6,5,3.8,6,4.4,7
2018/7/4 3:04,3.4,5,3.6,6,3.3,6
2018/7/4 3:05,3.2,6,3.3,6,3.1,6
2018/7/4 3:06,3,6,3.1,5,3.9,5
2018/7/4 3:07,2.9,6,3,5,7.6,9
2018/7/4 3:08,3,6,3,5,6.8,6
2018/7/4 3:09,3.1,6,3.1,5,8.9,6
2018/7/4 3:10,3.1,6,3.2,5,7.7,7
2018/7/4 3:11,3,6,3.1,5,3.1,5
2018/7/4 3:12,2.8,6,3,5,3.1,8
2018/7/4 3:13,2.8,6,2.8,5,4.9,7
2018/7/4 3:14,3.2,6,3.2,6,9.2,8
2018/7/4 3:15,3.5,6,3.5,6,8.1,6
2018/7/4 3:16,3.5,6,3.6,6,3.5,6
2018/7/4 3:17,3.6,6,3.6,6,7.6,6
2018/7/4 3:18,3.8,6,3.8,6,9.5,5
2018/7/4 3:19,3.7,6,3.8,6,7.2,5
2018/7/4 3:20,3.6,6,3.7,6,5.4,7
2018/7/4 3:21,3.5,6,3.6,6,2.5,7
2018/7/4 3:22,3.7,6,3.7,6,6.9,5
2018/7/4 3:23,4,6,4,6,8.4,6
2018/7/4 3:24,4,6,4,6,9.7,7
2018/7/4 3:25,3.9,6,4,6,4.8,7
2018/7/4 3:26,3.9,6,3.9,6,6.8,6
2018/7/4 3:27,4.1,6,4.1,6,7.5,6
2018/7/4 3:28,3.7,6,4.1,6,6.7,8
2018/7/4 3:29,3.4,6,3.6,6,4.3,5
2018/7/4 3:30,3.6,6,3.6,6,8.9,6
2018/7/4 3:31,4,6,4,6,7,6
2018/7/4 3:32,4.1,6,4.1,6,5.7,6
2018/7/4 3:33,3.8,6,4,6,5.5,6
2018/7/4 3:34,3.4,6,3.8,6,5.2,7
2018/7/4 3:35,3.4,6,3.5,6,5.6,5
2018/7/4 3:36,3.3,6,3.4,6,1.9,9
2018/7/4 3:37,3,6,3.2,6,5.2,8
2018/7/4 3:38,3,6,3,6,5,8
2018/7/4 3:39,3,6,3,6,4.5,7
2018/7/4 3:40,3,7,3.1,6,7.2,7
2018/7/4 3:41,2.8,7,2.9,6,5.2,8
2018/7/4 3:42,2.7,7,2.8,6,4.4,7
2018/7/4 3:43,2.7,7,2.7,6,6.1,7
2018/7/4 3:44,3,7,3,6,7.6,7
2018/7/4 3:45,2.9,7,3,6,3.6,5
2018/7/4 3:46,3,7,3,6,4.5,7
2018/7/4 3:47,3.1,7,3.1,6,4.7,7
2018/7/4 3:48,3.1,7,3.2,7,5.4,6
2018/7/4 3:49,3.2,7,3.2,7,4.4,6
2018/7/4 3:50,2.9,6,3.1,7,3.8,6
2018/7/4 3:51,2.7,6,2.9,7,3.7,4
2018/7/4 3:52,2.7,6,2.7,7,3.8,5
2018/7/4 3:53,2.8,6,2.8,7,6.1,5
2018/7/4 3:54,2.8,6,2.8,7,8.1,6
2018/7/4 3:55,3.1,6,3.1,7,7.8,6
2018/7/4 3:56,3.1,6,3.1,7,4.3,5
2018/7/4 3:57,3.2,6,3.2,7,5,6
2018/7/4 3:58,3.1,6,3.1,7,5.2,6
2018/7/4 3:59,3.1,6,3.1,6,5.5,5
2018/7/4 4:00,3.3,6,3.3,6,5.8,7
2018/7/4 4:01,3.5,6,3.5,6,6.3,5
2018/7/4 4:02,3.5,6,3.5,6,4.4,5
2018/7/4 4:03,3.4,6,3.5,6,4.5,5
2018/7/4 4:04,3.2,6,3.4,6,6.8,7
2018/7/4 4:05,3.1,6,3.2,6,6,6
2018/7/4 4:06,3.2,6,3.2,6,4.7,6
2018/7/4 4:07,3,6,3.2,6,3.8,8
2018/7/4 4:08,3,6,3,6,3.8,6
2018/7/4 4:09,3,6,3,6,4.3,5
2018/7/4 4:10,2.9,6,3,6,3.2,7
2018/7/4 4:11,2.6,6,2.8,6,2.5,2
2018/7/4 4:12,2.6,6,2.6,6,2.6,4
2018/7/4 4:13,2.4,6,2.5,6,3.6,7
2018/7/4 4:14,2.3,6,2.4,6,2.9,6
2018/7/4 4:15,2.1,6,2.2,6,2.7,7
2018/7/4 4:16,2,6,2.1,6,3.1,6
2018/7/4 4:17,2.1,6,2.1,6,3.1,6
2018/7/4 4:18,2,6,2.1,6,3.5,5
2018/7/4 4:19,2,6,2,6,4.4,6
2018/7/4 4:20,2,6,2,6,3.7,6
2018/7/4 4:21,2.1,6,2.2,6,4.1,6
2018/7/4 4:22,2.2,6,2.2,6,4.1,5
2018/7/4 4:23,2.2,6,2.3,6,3.3,8
2018/7/4 4:24,2.3,6,2.3,6,4.3,8
2018/7/4 4:25,2.3,6,2.3,6,3.3,6
2018/7/4 4:26,2.3,6,2.3,6,2.9,6
2018/7/4 4:27,2.2,6,2.3,6,3.1,6
2018/7/4 4:28,2.2,7,2.3,6,2.2,7
2018/7/4 4:29,2,7,2.2,6,3.5,6
2018/7/4 4:30,2,7,2,6,4.2,7
2018/7/4 4:31,2,7,2,6,3.1,7
2018/7/4 4:32,1.9,7,2,6,3,6
2018/7/4 4:33,1.9,7,1.9,6,3.1,7
2018/7/4 4:34,1.8,7,1.9,6,2.1,7
2018/7/4 4:35,1.7,7,1.7,6,3,8
2018/7/4 4:36,1.9,7,1.9,6,6.8,8
2018/7/4 4:37,2,8,2.1,6,6.9,8
2018/7/4 4:38,2,8,2,7,2.5,9
2018/7/4 4:39,2.2,8,2.2,8,3.7,8
2018/7/4 4:40,2.1,8,2.1,8,3.5,6
2018/7/4 4:41,2.2,8,2.2,8,4.8,7
2018/7/4 4:42,2.3,8,2.3,8,4.1,9
2018/7/4 4:43,2.4,8,2.4,8,4.9,7
2018/7/4 4:44,2.6,8,2.6,8,5.5,7
2018/7/4 4:45,2.7,7,2.7,8,4.9,6
2018/7/4 4:46,2.6,7,2.7,8,3.9,6
2018/7/4 4:47,2.5,7,2.6,8,4.1,7
2018/7/4 4:48,2.5,7,2.5,8,2.9,10
2018/7/4 4:49,2.4,7,2.5,8,3.7,8
2018/7/4 4:50,2.4,7,2.5,8,3.8,9
2018/7/4 4:51,2.4,7,2.4,8,4.2,7
2018/7/4 4:52,2.4,7,2.4,8,4.8,6
2018/7/4 4:53,2.3,7,2.4,8,3.9,6
2018/7/4 4:54,2.2,7,2.2,8,3.7,7
2018/7/4 4:55,2.1,7,2.2,7,3.5,7
2018/7/4 4:56,1.9,7,2.1,7,2,6
2018/7/4 4:57,2,7,2,7,2.6,8
2018/7/4 4:58,2.1,7,2.1,7,4.3,5
2018/7/4 4:59,2.2,7,2.2,7,5.5,5
2018/7/4 5:00,2.3,6,2.3,7,4.3,6
2018/7/4 5:01,2.3,6,2.3,7,3.9,4
2018/7/4 5:02,2.3,6,2.3,7,4.2,4
2018/7/4 5:03,2.3,6,2.3,6,3.3,5
2018/7/4 5:04,2.2,6,2.3,6,3.1,8
2018/7/4 5:05,2.3,6,2.3,6,3.9,6
2018/7/4 5:06,2.4,6,2.4,6,3.9,7
2018/7/4 5:07,2.4,6,2.4,6,2.6,6
2018/7/4 5:08,2.4,6,2.4,6,4.4,8
2018/7/4 5:09,2.3,6,2.4,6,4.9,7
2018/7/4 5:10,2.4,6,2.4,6,6.8,6
2018/7/4 5:11,2.4,6,2.4,6,4.4,7
2018/7/4 5:12,2.4,6,2.4,6,5.2,5
2018/7/4 5:13,2.4,6,2.4,6,5.1,7
2018/7/4 5:14,2.6,6,2.6,6,5.5,6
2018/7/4 5:15,2.6,7,2.6,6,4.7,6
2018/7/4 5:16,2.8,7,2.8,6,7.8,8
2018/7/4 5:17,3.1,7,3.1,6,7,5
2018/7/4 5:18,3,7,3.1,6,3.7,7
2018/7/4 5:19,3,7,3,6,4.8,7
2018/7/4 5:20,2.9,7,3,6,4.2,6
2018/7/4 5:21,3,7,3,6,4.9,7
2018/7/4 5:22,3,7,3,6,4.1,5
2018/7/4 5:23,3,7,3,6,4.3,5
2018/7/4 5:24,2.9,7,3,6,3.1,8
2018/7/4 5:25,2.9,7,2.9,6,5.4,8
2018/7/4 5:26,2.5,7,2.9,6,3.2,8
2018/7/4 5:27,2.3,7,2.5,7,3.5,6
2018/7/4 5:28,2.2,6,2.3,7,1.8,7
2018/7/4 5:29,2.2,6,2.2,7,3.7,6
2018/7/4 5:30,2.1,6,2.2,7,4.7,7
2018/7/4 5:31,1.8,6,2.1,7,2.1,6
2018/7/4 5:32,1.7,6,1.8,7,1.8,5
2018/7/4 5:33,1.5,7,1.6,7,3,8
2018/7/4 5:34,1.7,6,1.7,7,6.5,6
2018/7/4 5:35,1.7,6,1.7,7,6.9,6
2018/7/4 5:36,2,6,2,7,5.8,6
2018/7/4 5:37,2,6,2,7,3.5,6
2018/7/4 5:38,2.2,7,2.2,6,5.8,8
2018/7/4 5:39,2.3,7,2.3,7,6.8,8
2018/7/4 5:40,2.4,7,2.4,7,5.5,8
2018/7/4 5:41,2.6,7,2.6,7,3.6,7
2018/7/4 5:42,2.9,7,2.9,7,4.8,6
2018/7/4 5:43,3,6,3,6,4.8,5
2018/7/4 5:44,3.1,7,3.1,6,7.8,7
2018/7/4 5:45,3.1,7,3.2,7,6.5,8
2018/7/4 5:46,3.1,7,3.1,7,6.1,6
2018/7/4 5:47,3.3,7,3.3,7,5,6
2018/7/4 5:48,3.2,7,3.3,7,2.9,7
2018/7/4 5:49,3,7,3.2,7,3.3,10
2018/7/4 5:50,3,7,3,7,5.4,7
2018/7/4 5:51,3.1,7,3.1,7,6.7,8
2018/7/4 5:52,2.9,7,3.1,7,5.7,9
2018/7/4 5:53,2.9,7,2.9,7,4.3,8
2018/7/4 5:54,2.6,7,2.9,7,3.5,6
2018/7/4 5:55,2.4,7,2.6,7,3.3,6
2018/7/4 5:56,2.4,7,2.5,7,5.6,7
2018/7/4 5:57,2.4,7,2.4,7,3.8,8
2018/7/4 5:58,2.4,8,2.4,7,3.7,7
2018/7/4 5:59,2.4,8,2.5,7,4.8,10
2018/7/4 6:00,2.5,7,2.5,7,6.3,8
2018/7/4 6:01,2.5,8,2.5,7,4.9,8
2018/7/4 6:02,2.6,7,2.6,7,5.1,6
2018/7/4 6:03,2.8,7,2.8,7,5.4,6
2018/7/4 6:04,3,7,3,7,5.7,5
2018/7/4 6:05,3.1,7,3.1,7,4.7,6
2018/7/4 6:06,3,7,3.1,7,4.9,6
2018/7/4 6:07,2.9,7,3,7,4.1,6
2018/7/4 6:08,2.7,6,2.9,7,1.4,8
2018/7/4 6:09,2.7,6,2.7,7,3.9,6
2018/7/4 6:10,2.6,6,2.8,7,4.1,6
2018/7/4 6:11,2.6,6,2.6,7,5.4,9
2018/7/4 6:12,2.5,6,2.6,7,3.7,9
2018/7/4 6:13,2.4,7,2.4,7,3.5,8
2018/7/4 6:14,2.2,7,2.4,7,3.8,8
2018/7/4 6:15,2.1,7,2.2,7,3.9,8
2018/7/4 6:16,2.2,7,2.2,7,4.9,8
2018/7/4 6:17,2.2,7,2.2,7,4.7,8
2018/7/4 6:18,2.4,7,2.4,6,3.7,7
2018/7/4 6:19,2.5,8,2.5,6,4.2,8
2018/7/4 6:20,2.3,8,2.4,6,2,6
2018/7/4 6:21,2.1,8,2.3,6,1.6,8
2018/7/4 6:22,2,8,2.1,8,1.8,7
2018/7/4 6:23,2,8,2,8,3.5,6
2018/7/4 6:24,2.1,8,2.1,8,5.6,6
2018/7/4 6:25,2.1,8,2.2,8,4.2,8
2018/7/4 6:26,2.1,8,2.2,8,4.2,8
2018/7/4 6:27,2,7,2.1,8,2.9,7
2018/7/4 6:28,1.9,7,2.1,8,1.8,7
2018/7/4 6:29,1.8,7,1.9,8,3.5,6
2018/7/4 6:30,1.8,7,1.8,8,2.7,8
2018/7/4 6:31,1.9,7,1.9,8,3.2,8
2018/7/4 6:32,2,7,2,8,3.6,7
2018/7/4 6:33,2,7,2,8,3.7,9
2018/7/4 6:34,2.1,7,2.1,8,6.1,8
2018/7/4 6:35,2,7,2.1,8,3.8,8
2018/7/4 6:36,2,7,2,7,3.3,7
2018/7/4 6:37,2.1,7,2.1,7,4.9,5
2018/7/4 6:38,2.2,7,2.2,7,5.4,5
2018/7/4 6:39,2.2,7,2.2,7,3.1,8
2018/7/4 6:40,2.2,7,2.2,7,2.1,9
2018/7/4 6:41,2.2,7,2.2,7,2.2,7
2018/7/4 6:42,2,7,2.2,7,1.3,6
2018/7/4 6:43,2.1,7,2.1,7,4.7,6
2018/7/4 6:44,1.9,7,2,7,3.6,6
2018/7/4 6:45,1.8,7,1.9,7,3.6,9
2018/7/4 6:46,1.8,7,1.8,7,4.3,8
2018/7/4 6:47,1.8,7,1.9,7,5.4,7
2018/7/4 6:48,1.9,7,1.9,7,5.6,6
2018/7/4 6:49,2,7,2,7,4.2,8
2018/7/4 6:50,1.9,7,1.9,7,2,10
2018/7/4 6:51,2,7,2,7,4.8,8
2018/7/4 6:52,2.2,7,2.2,7,4.1,8
2018/7/4 6:53,2.2,7,2.3,7,3.7,8
2018/7/4 6:54,2,7,2.2,7,1.5,9
2018/7/4 6:55,2.1,8,2.1,7,3.2,5
2018/7/4 6:56,2,8,2.1,7,3.8,6
2018/7/4 6:57,1.9,8,2,7,2,8
2018/7/4 6:58,1.7,8,1.9,7,3,8
2018/7/4 6:59,1.7,8,1.7,7,2.2,8
2018/7/4 7:00,1.8,8,1.8,7,3.2,7
2018/7/4 7:01,1.8,8,1.8,7,3.9,7
2018/7/4 7:02,1.7,7,1.8,7,3.1,8
2018/7/4 7:03,1.6,7,1.7,7,2.1,6
2018/7/4 7:04,1.6,7,1.6,8,1.5,7
2018/7/4 7:05,1.7,7,1.7,8,2.5,7
2018/7/4 7:06,1.6,7,1.6,8,2.9,8
2018/7/4 7:07,1.7,7,1.7,8,3.6,9
2018/7/4 7:08,1.6,7,1.7,8,1.8,5
2018/7/4 7:09,1.6,7,1.6,8,2.6,8
2018/7/4 7:10,1.8,7,1.8,8,4.1,6
2018/7/4 7:11,1.8,7,1.8,8,3.9,6
2018/7/4 7:12,1.8,7,1.8,7,2.6,6
2018/7/4 7:13,1.7,7,1.7,7,1.6,6
2018/7/4 7:14,1.9,7,1.9,7,2.7,6
2018/7/4 7:15,2,7,2,7,3.5,8
2018/7/4 7:16,2,6,2,7,2.9,6
2018/7/4 7:17,1.9,7,2,7,2.2,8
2018/7/4 7:18,1.8,7,1.9,7,1.4,9
2018/7/4 7:19,1.7,6,1.8,7,1,4
2018/7/4 7:20,1.4,6,1.7,7,1,4
2018/7/4 7:21,1.2,6,1.4,7,0.8,3
2018/7/4 7:22,1.1,6,1.2,7,2.9,8
2018/7/4 7:23,1.3,6,1.3,7,4.7,8
2018/7/4 7:24,1.2,6,1.3,7,2.9,5
2018/7/4 7:25,1.2,6,1.3,7,2.9,5
2018/7/4 7:26,1.1,6,1.2,6,1.6,5
2018/7/4 7:27,1,6,1.1,7,1,9
2018/7/4 7:28,1,6,1,7,0.9,7
2018/7/4 7:29,1.1,6,1.1,6,1.1,9
2018/7/4 7:30,1.2,7,1.2,6,2.1,8
2018/7/4 7:31,1.2,7,1.2,6,2.2,7
2018/7/4 7:32,1.2,7,1.2,6,3.2,7
2018/7/4 7:33,1.2,7,1.2,6,3.9,7
2018/7/4 7:34,1.2,7,1.2,6,2.4,7
2018/7/4 7:35,1.2,7,1.2,6,2,5
2018/7/4 7:36,1.2,7,1.2,7,2,7
2018/7/4 7:37,1.2,7,1.3,7,1.3,5
2018/7/4 7:38,1.3,7,1.3,7,2.4,5
2018/7/4 7:39,1.4,7,1.4,7,2.2,6
2018/7/4 7:40,1.4,7,1.4,7,2.5,6
2018/7/4 7:41,1.5,7,1.5,7,2.5,7
2018/7/4 7:42,1.5,6,1.5,7,1.8,6
2018/7/4 7:43,1.3,6,1.5,7,1.1,2
2018/7/4 7:44,1.2,6,1.3,7,1.6,7
2018/7/4 7:45,1.2,6,1.2,7,1.3,6
2018/7/4 7:46,1.1,6,1.2,7,1.1,3
2018/7/4 7:47,1.2,6,1.2,7,2.1,5
2018/7/4 7:48,1.3,5,1.3,7,3.3,5
2018/7/4 7:49,1.3,5,1.4,7,3.3,5
2018/7/4 7:50,1.3,5,1.3,7,2.1,6
2018/7/4 7:51,1.2,5,1.3,7,2,6
2018/7/4 7:52,1.2,5,1.2,6,1.8,5
2018/7/4 7:53,1.3,6,1.3,5,2.2,9
2018/7/4 7:54,1.3,5,1.3,5,2.2,6
2018/7/4 7:55,1.5,6,1.5,6,5.4,6
2018/7/4 7:56,1.6,6,1.6,6,4.3,7
2018/7/4 7:57,1.7,6,1.7,6,3.8,9
2018/7/4 7:58,1.6,6,1.7,6,2.5,6
2018/7/4 7:59,1.6,7,1.6,6,3.2,9
2018/7/4 8:00,1.7,7,1.7,6,4.5,6
2018/7/4 8:01,2,7,2,7,6.2,8
2018/7/4 8:02,2.2,7,2.2,7,6,9
2018/7/4 8:03,2.4,8,2.4,7,4.7,8
2018/7/4 8:04,2.5,8,2.5,8,4.1,9
2018/7/4 8:05,2.4,8,2.5,8,4.7,9
2018/7/4 8:06,2.6,8,2.7,8,6.2,9
2018/7/4 8:07,2.7,8,2.7,8,5.6,9
2018/7/4 8:08,2.8,9,2.8,9,4.4,8
2018/7/4 8:09,2.9,9,2.9,9,4.9,9
2018/7/4 8:10,3,9,3,9,4.4,9
2018/7/4 8:11,2.9,9,3,9,5.1,10
2018/7/4 8:12,2.9,9,2.9,9,4.4,8
2018/7/4 8:13,2.9,9,2.9,9,5.6,9
2018/7/4 8:14,2.8,9,2.8,9,6,9
2018/7/4 8:15,2.8,9,2.9,9,4.9,10
2018/7/4 8:16,2.7,10,2.8,9,5.4,9
2018/7/4 8:17,2.8,9,2.8,9,4.8,9
2018/7/4 8:18,2.8,9,2.8,9,4.1,9
2018/7/4 8:19,2.6,9,2.8,9,2.9,10
2018/7/4 8:20,2.5,10,2.6,9,3.7,10
2018/7/4 8:21,2.3,10,2.5,9,3.1,8
2018/7/4 8:22,2.1,10,2.3,9,2.6,10
2018/7/4 8:23,2.2,9,2.2,9,4.9,9
2018/7/4 8:24,2.2,9,2.2,9,3.8,8
2018/7/4 8:25,2,9,2.2,10,3.1,8
2018/7/4 8:26,1.8,9,2,9,2.4,10
2018/7/4 8:27,1.8,9,1.8,9,4.7,9
2018/7/4 8:28,1.8,9,1.8,9,3.1,10
2018/7/4 8:29,1.9,9,1.9,9,3.9,9
2018/7/4 8:30,2,9,2,10,4.5,10
2018/7/4 8:31,2,9,2,10,4.3,9
2018/7/4 8:32,2.2,9,2.2,9,4.5,10
2018/7/4 8:33,2,10,2.2,9,4.2,11
2018/7/4 8:34,2.1,10,2.1,9,3.5,9
2018/7/4 8:35,2.1,10,2.1,9,2.9,8
2018/7/4 8:36,2.1,10,2.2,9,2.9,9
2018/7/4 8:37,1.9,10,2.1,9,1.9,8
2018/7/4 8:38,1.9,10,1.9,9,1.8,10
2018/7/4 8:39,1.8,10,1.9,9,2.6,9
2018/7/4 8:40,1.6,9,1.8,9,2.6,9
2018/7/4 8:41,1.6,9,1.6,9,2.9,9
2018/7/4 8:42,1.5,9,1.6,9,3,11
2018/7/4 8:43,1.5,9,1.5,10,2.7,9
2018/7/4 8:44,1.5,10,1.5,10,3.2,10
2018/7/4 8:45,1.5,10,1.5,10,2.4,9
2018/7/4 8:46,1.5,9,1.5,10,3.8,8
2018/7/4 8:47,1.5,10,1.6,10,2,9
2018/7/4 8:48,1.6,10,1.6,10,2.5,8
2018/7/4 8:49,1.5,10,1.6,10,1.1,12
2018/7/4 8:50,1.4,10,1.5,9,1.6,9
2018/7/4 8:51,1.4,10,1.4,9,1.9,9
2018/7/4 8:52,1.3,10,1.4,10,2,10
2018/7/4 8:53,1.2,10,1.3,10,1.6,9
2018/7/4 8:54,1.2,10,1.2,10,2,9
2018/7/4 8:55,1.2,10,1.2,10,2.7,9
2018/7/4 8:56,1.1,10,1.2,10,2.7,10
2018/7/4 8:57,1.1,9,1.1,10,2,9
2018/7/4 8:58,1.1,9,1.1,10,2.1,8
2018/7/4 8:59,1.2,9,1.2,10,2.1,9
2018/7/4 9:00,1.3,9,1.3,10,2.2,9
2018/7/4 9:01,1.3,9,1.3,10,2.1,7
2018/7/4 9:02,1.2,9,1.2,10,1.5,8
2018/7/4 9:03,1.4,9,1.4,9,3.3,8
2018/7/4 9:04,1.4,8,1.4,9,3.1,8
2018/7/4 9:05,1.4,8,1.4,9,2.5,6
2018/7/4 9:06,1.5,8,1.5,8,3,8
2018/7/4 9:07,1.5,8,1.5,8,2.7,8
2018/7/4 9:08,1.6,8,1.6,8,4.4,7
2018/7/4 9:09,1.8,8,1.8,8,5.4,8
2018/7/4 9:10,2,8,2,8,5.1,8
2018/7/4 9:11,2.1,8,2.1,8,3.9,7
2018/7/4 9:12,2.2,8,2.2,8,4.1,7
2018/7/4 9:13,2.2,8,2.2,8,3.7,8
2018/7/4 9:14,2.3,8,2.3,8,3.2,8
2018/7/4 9:15,2.3,8,2.3,8,3.1,9
2018/7/4 9:16,2.3,8,2.3,8,3.2,9
2018/7/4 9:17,2.4,8,2.4,8,3.7,10
2018/7/4 9:18,2.3,8,2.3,8,4.3,8
2018/7/4 9:19,2.3,8,2.4,8,3.8,8
2018/7/4 9:20,2.2,8,2.3,8,3.5,8
2018/7/4 9:21,2.2,9,2.3,8,3.5,8
2018/7/4 9:22,2.2,9,2.2,8,4.1,10
2018/7/4 9:23,2.3,9,2.3,8,5.1,9
2018/7/4 9:24,2.4,9,2.4,8,4.5,8
2018/7/4 9:25,2.4,9,2.5,9,4.2,9
2018/7/4 9:26,2.5,9,2.5,9,3.9,10
2018/7/4 9:27,2.6,9,2.6,9,5.1,8
2018/7/4 9:28,2.8,9,2.8,9,5.8,8
2018/7/4 9:29,2.8,9,2.8,9,3.6,8
2018/7/4 9:30,2.8,9,2.8,9,4.3,8
2018/7/4 9:31,2.7,8,2.8,9,3.2,8
2018/7/4 9:32,2.8,8,2.8,9,3.8,8
2018/7/4 9:33,2.5,8,2.7,9,3.2,9
2018/7/4 9:34,2.6,8,2.6,9,4.2,8
2018/7/4 9:35,2.5,8,2.6,9,3.3,8
2018/7/4 9:36,2.5,8,2.5,9,4.8,8
2018/7/4 9:37,2.5,8,2.6,9,3.9,8
2018/7/4 9:38,2.4,8,2.4,9,3.6,8
2018/7/4 9:39,2.3,8,2.4,9,3.1,9
2018/7/4 9:40,2.3,8,2.3,9,3.8,9
2018/7/4 9:41,2.4,9,2.4,8,4.5,10
2018/7/4 9:42,2.3,9,2.4,8,3.9,9
2018/7/4 9:43,2.4,9,2.4,8,3.8,9
2018/7/4 9:44,2.2,9,2.4,8,3,8
2018/7/4 9:45,2.2,9,2.2,8,3.7,8
2018/7/4 9:46,2.1,9,2.2,8,3,8
2018/7/4 9:47,2,9,2.1,8,2.9,8
2018/7/4 9:48,2,9,2,8,3,9
2018/7/4 9:49,2.1,9,2.1,9,4.5,9
2018/7/4 9:50,2.1,9,2.1,9,3.6,8
2018/7/4 9:51,2,9,2.1,9,3.1,9
2018/7/4 9:52,2,9,2,9,3.1,9
2018/7/4 9:53,2,9,2,9,3.7,9
2018/7/4 9:54,2.2,9,2.2,9,4.7,9
2018/7/4 9:55,2.3,9,2.3,9,4.4,8
2018/7/4 9:56,2.3,9,2.3,9,3,9
2018/7/4 9:57,2.3,9,2.3,9,2.6,8
2018/7/4 9:58,2.3,9,2.3,9,3.5,8
2018/7/4 9:59,2.3,9,2.3,9,4.3,8
2018/7/4 10:00,2.2,9,2.3,9,2.9,8
2018/7/4 10:01,2.4,8,2.4,8,4.3,8
2018/7/4 10:02,2.3,8,2.4,8,3.2,10
2018/7/4 10:03,2.3,8,2.3,8,3,9
2018/7/4 10:04,2.2,8,2.3,8,3.6,8
2018/7/4 10:05,2.1,8,2.2,8,3.5,8
2018/7/4 10:06,2.2,8,2.2,8,3.9,8
2018/7/4 10:07,2.2,8,2.2,8,3,7
2018/7/4 10:08,2.2,8,2.2,8,2.9,8
2018/7/4 10:09,2.1,8,2.2,8,2.5,8
2018/7/4 10:10,2.1,8,2.1,8,3.2,8
2018/7/4 10:11,2,8,2,8,4.3,9
2018/7/4 10:12,2.1,8,2.1,8,4.5,9
2018/7/4 10:13,2.2,9,2.2,8,3.9,9
2018/7/4 10:14,2.2,9,2.2,8,2.9,9
2018/7/4 10:15,2.1,9,2.2,8,3.1,9
2018/7/4 10:16,2,9,2.1,8,2.2,9
2018/7/4 10:17,1.9,9,2,8,3.1,9
2018/7/4 10:18,1.9,9,1.9,8,2.4,9
2018/7/4 10:19,2,9,2,8,4.3,9
2018/7/4 10:20,2,9,2,8,2.7,8
2018/7/4 10:21,1.9,9,2,8,3.7,8
2018/7/4 10:22,1.7,9,1.9,8,3,8
2018/7/4 10:23,1.7,9,1.7,9,3,9
2018/7/4 10:24,1.7,9,1.7,9,3.2,9
2018/7/4 10:25,1.8,9,1.8,9,3.8,9
2018/7/4 10:26,1.9,9,1.9,9,3.2,8
2018/7/4 10:27,1.9,9,1.9,9,3.6,8
2018/7/4 10:28,2.1,9,2.1,9,3.7,8
2018/7/4 10:29,2.1,9,2.1,9,3.3,9
2018/7/4 10:30,2.1,9,2.1,9,3,8
2018/7/4 10:31,2,9,2.1,9,1.8,9
2018/7/4 10:32,2,9,2,9,2.7,9
2018/7/4 10:33,2.1,9,2.1,9,3.8,9
2018/7/4 10:34,2,9,2.1,9,2.9,8
2018/7/4 10:35,1.9,9,2,9,3,10
2018/7/4 10:36,1.9,9,1.9,9,2.5,9
2018/7/4 10:37,1.8,9,1.9,9,2.9,10
2018/7/4 10:38,1.7,9,1.8,9,3.1,9
2018/7/4 10:39,1.6,9,1.7,9,2.1,10
2018/7/4 10:40,1.5,9,1.6,9,3,10
2018/7/4 10:41,1.6,9,1.6,9,2.4,9
2018/7/4 10:42,1.7,9,1.7,9,4.2,9
2018/7/4 10:43,1.6,9,1.7,9,3,10
2018/7/4 10:44,1.7,9,1.7,9,3.6,9
2018/7/4 10:45,1.7,9,1.7,9,3.1,8
2018/7/4 10:46,1.7,9,1.7,9,2.5,9
2018/7/4 10:47,1.7,9,1.7,9,2.7,9
2018/7/4 10:48,1.6,9,1.7,9,2.5,9
2018/7/4 10:49,1.7,9,1.7,9,4.2,8
2018/7/4 10:50,1.8,9,1.8,9,3.8,9
2018/7/4 10:51,1.9,9,1.9,9,4.3,8
2018/7/4 10:52,1.9,9,2,9,3.8,9
2018/7/4 10:53,2.1,9,2.1,9,5.1,9
2018/7/4 10:54,2.1,9,2.1,9,4.9,9
2018/7/4 10:55,2.3,9,2.3,9,5.7,9
2018/7/4 10:56,2.6,9,2.6,9,5.6,8
2018/7/4 10:57,2.6,9,2.6,9,4.8,8
2018/7/4 10:58,2.8,9,2.8,9,3.8,7
2018/7/4 10:59,3,9,3,9,5.1,9
2018/7/4 11:00,3,9,3,9,5,9
2018/7/4 11:01,2.9,9,3,9,3.6,8
2018/7/4 11:02,2.9,9,2.9,9,4.1,9
2018/7/4 11:03,2.7,9,2.9,9,3,9
2018/7/4 11:04,2.7,9,2.8,9,3,10
2018/7/4 11:05,2.5,9,2.7,9,3.5,8
2018/7/4 11:06,2.4,9,2.5,9,4.3,9
2018/7/4 11:07,2.3,9,2.4,9,3.5,10
2018/7/4 11:08,2.2,9,2.3,9,3.3,10
2018/7/4 11:09,2,9,2.2,9,3.7,10
2018/7/4 11:10,2,9,2,9,4.2,9
2018/7/4 11:11,2.2,9,2.2,9,5.4,9
2018/7/4 11:12,2.1,9,2.2,9,4.9,9
2018/7/4 11:13,2.2,9,2.2,9,3.6,9
2018/7/4 11:14,2.2,9,2.2,9,3.5,9
2018/7/4 11:15,2.2,9,2.2,9,2.7,8
2018/7/4 11:16,2.1,9,2.2,9,2,9
2018/7/4 11:17,2,9,2.1,9,2.1,8
2018/7/4 11:18,1.9,9,2,9,2.5,9
2018/7/4 11:19,1.9,9,1.9,9,2.9,9
2018/7/4 11:20,1.8,9,1.9,9,1.8,10
2018/7/4 11:21,1.5,9,1.8,9,1,11
2018/7/4 11:22,1.3,9,1.5,9,1.8,12
2018/7/4 11:23,1.3,9,1.3,9,3.2,9
2018/7/4 11:24,1.3,9,1.3,9,3.3,9
2018/7/4 11:25,1.3,9,1.4,9,2.9,9
2018/7/4 11:26,1.4,9,1.4,9,2.7,9
2018/7/4 11:27,1.5,9,1.5,9,3.6,10
2018/7/4 11:28,1.6,9,1.6,9,3.2,9
2018/7/4 11:29,1.7,9,1.7,9,4.2,10
2018/7/4 11:30,1.7,9,1.7,9,2.1,10
2018/7/4 11:31,1.8,9,1.8,9,3.2,7
2018/7/4 11:32,1.9,9,1.9,9,3.1,8
2018/7/4 11:33,2,9,2,9,4.4,8
2018/7/4 11:34,2.1,9,2.1,9,4.5,9
2018/7/4 11:35,2.3,9,2.3,9,5.1,8
2018/7/4 11:36,2.4,9,2.4,9,4.4,10
2018/7/4 11:37,2.3,9,2.4,9,3.3,9
2018/7/4 11:38,2.3,9,2.3,9,3.5,9
2018/7/4 11:39,2.2,9,2.2,9,3.7,8
2018/7/4 11:40,2.3,9,2.3,9,3.5,9
2018/7/4 11:41,2.3,9,2.3,9,3.6,10
2018/7/4 11:42,2.3,9,2.3,9,3.7,9
2018/7/4 11:43,2.3,9,2.3,9,4.4,9
2018/7/4 11:44,2.3,9,2.4,9,5.1,10
2018/7/4 11:45,2.2,9,2.3,9,5.6,9
2018/7/4 11:46,2.1,9,2.2,9,3.7,10
2018/7/4 11:47,2.2,9,2.2,9,3.6,7
2018/7/4 11:48,2.3,9,2.3,9,3.8,8
2018/7/4 11:49,2.4,9,2.4,9,5.5,9
2018/7/4 11:50,2.6,9,2.6,9,5.5,10
2018/7/4 11:51,2.6,9,2.7,9,4.2,10
2018/7/4 11:52,2.6,9,2.6,9,3,9
2018/7/4 11:53,2.4,9,2.6,9,3.3,10
2018/7/4 11:54,2.3,9,2.4,9,3.7,10
2018/7/4 11:55,2.2,9,2.3,9,3,8
2018/7/4 11:56,2.1,9,2.2,9,3.6,9
2018/7/4 11:57,2,9,2.1,9,2.5,8
2018/7/4 11:58,2,9,2,9,3.5,9
2018/7/4 11:59,1.9,9,1.9,9,3.7,9
2018/7/4 12:00,1.6,9,1.8,9,3.9,10
2018/7/4 12:01,1.6,9,1.6,9,3.8,10
2018/7/4 12:02,1.6,10,1.6,9,2.6,8
2018/7/4 12:03,1.6,9,1.6,9,2.7,9
2018/7/4 12:04,1.5,10,1.6,9,2.7,9
2018/7/4 12:05,1.5,9,1.6,9,1.8,11
2018/7/4 12:06,1.4,9,1.5,9,2.5,9
2018/7/4 12:07,1.5,9,1.5,9,3,8
2018/7/4 12:08,1.4,9,1.5,9,3,8
2018/7/4 12:09,1.5,9,1.5,9,4.8,8